Retour au catalogue

COSMOS 1275 DEB

ActifPO
NORAD 13816·DEBRIS·🇷🇺 Russia

Lancé Jun 4, 1981 depuis Plesetsk Cosmodrome

Loading…

Prochains Passages (prochaines 24 heures)

TLE

FraisSource: Space-Track

Époque: Sep 14, 2026, 07:05 UTC

1 13816U 81053HL  26257.29564144  .00002288  00000-0  17237-2 0  9995
2 13816  82.9859   4.7314 0148678 287.6276  99.6512 13.88859659172658

Suivez COSMOS 1275 DEB en temps réel avec AllMySat

Download on the App Store